TimeMST,TemperatureF,Dew PointF,Humidity,Sea Level PressureIn,VisibilityMPH,Wind Direction,Wind SpeedMPH,Gust SpeedMPH,PrecipitationIn,Events,Conditions,WindDirDegrees,DateUTC
12:57 AM,32.0,28.0,85,29.64,8.0,WSW,15.0,21.9,0.02,Snow,Light Snow,240,2012-11-10 07:57:00
1:33 AM,30.2,26.6,86,29.75,6.0,SW,9.2,17.3,0.01,Snow,Light Snow,220,2012-11-10 08:33:00
1:57 AM,30.0,26.1,85,29.65,4.0,WSW,6.9,21.9,0.01,Snow,Light Snow,250,2012-11-10 08:57:00
2:40 AM,30.2,24.8,80,29.76,10.0,WSW,10.4,21.9,0.00,Snow,Light Snow,250,2012-11-10 09:40:00
2:57 AM,30.0,23.0,75,29.68,10.0,WSW,12.7,19.6,0.00,,Overcast,240,2012-11-10 09:57:00
3:57 AM,28.9,21.0,72,29.70,10.0,WSW,10.4,20.7,N/A,,Overcast,250,2012-11-10 10:57:00
4:57 AM,27.0,19.9,75,29.72,-9999.0,SW,10.4,-,N/A,,Clear,230,2012-11-10 11:57:00
5:57 AM,26.1,19.0,75,29.73,10.0,SW,11.5,-,N/A,,Clear,230,2012-11-10 12:57:00
6:57 AM,24.1,15.1,69,29.78,10.0,WSW,6.9,-,N/A,,Clear,250,2012-11-10 13:57:00
7:57 AM,25.0,12.0,58,29.79,10.0,WSW,8.1,-,N/A,,Clear,240,2012-11-10 14:57:00
8:57 AM,27.0,10.9,51,29.82,10.0,SW,12.7,-,N/A,,Clear,220,2012-11-10 15:57:00
9:57 AM,28.9,8.1,41,29.82,10.0,WSW,16.1,-,N/A,,Clear,240,2012-11-10 16:57:00
10:57 AM,30.9,10.0,42,29.83,10.0,SW,20.7,27.6,N/A,,Clear,220,2012-11-10 17:57:00
11:57 AM,32.0,6.1,34,29.82,10.0,WSW,16.1,28.8,N/A,,Clear,240,2012-11-10 18:57:00
12:57 PM,33.1,12.0,42,29.78,10.0,SW,28.8,36.8,N/A,,Mostly Cloudy,230,2012-11-10 19:57:00
1:57 PM,34.0,12.9,42,29.78,10.0,WSW,16.1,35.7,N/A,,Overcast,240,2012-11-10 20:57:00
2:57 PM,30.0,10.9,45,29.80,10.0,WSW,13.8,25.3,0.00,,Mostly Cloudy,240,2012-11-10 21:57:00
3:57 PM,28.9,16.0,58,29.83,10.0,West,10.4,25.3,0.00,,Overcast,270,2012-11-10 22:57:00
4:55 PM,24.8,17.6,74,29.87,1.2,West,15.0,27.6,0.00,Snow,Light Snow,260,2012-11-10 23:55:00
4:57 PM,24.1,18.0,77,29.89,0.5,West,13.8,27.6,0.00,Snow,Snow,270,2012-11-10 23:57:00
5:11 PM,24.8,19.4,80,29.86,2.0,WSW,6.9,-,0.00,Snow,Light Snow,250,2012-11-11 00:11:00
5:19 PM,24.8,17.6,74,29.87,8.0,WSW,11.5,16.1,0.00,Snow,Light Snow,240,2012-11-11 00:19:00
5:27 PM,24.8,19.4,80,29.87,3.0,SW,16.1,26.5,0.00,Snow,Light Snow,230,2012-11-11 00:27:00
5:31 PM,24.8,19.4,80,29.87,1.8,SW,19.6,26.5,0.00,Snow,Light Snow,220,2012-11-11 00:31:00
5:35 PM,24.8,19.4,80,29.88,0.8,WSW,11.5,24.2,0.00,Snow,Light Snow,250,2012-11-11 00:35:00
5:54 PM,23.0,19.4,86,29.88,1.0,SW,15.0,20.7,0.02,Snow,Light Snow,220,2012-11-11 00:54:00
5:57 PM,23.0,19.9,88,29.91,1.0,SW,17.3,24.2,0.02,Snow,Light Snow,230,2012-11-11 00:57:00
6:03 PM,24.8,19.4,80,29.88,3.0,SW,15.0,24.2,0.00,Snow,Light Snow,230,2012-11-11 01:03:00
6:24 PM,24.8,19.4,80,29.90,1.8,West,6.9,16.1,0.01,Snow,Light Snow,260,2012-11-11 01:24:00
6:34 PM,24.8,19.4,80,29.90,3.0,WSW,5.8,-,0.01,Snow,Light Snow,250,2012-11-11 01:34:00
6:47 PM,23.0,19.4,86,29.91,1.8,Variable,3.5,-,0.01,Snow,Light Snow,0,2012-11-11 01:47:00
6:52 PM,23.0,19.4,86,29.91,2.0,West,3.5,-,0.01,Snow,Light Snow,260,2012-11-11 01:52:00
6:57 PM,23.0,19.0,85,29.95,6.0,WSW,4.6,-,0.01,Snow,Light Snow,250,2012-11-11 01:57:00
7:57 PM,21.0,17.1,85,29.98,10.0,West,3.5,-,0.00,,Clear,260,2012-11-11 02:57:00
8:15 PM,21.2,17.6,86,29.93,10.0,WSW,3.5,-,N/A,,Mostly Cloudy,250,2012-11-11 03:15:00
8:24 PM,19.4,17.6,93,29.94,9.0,Calm,Calm,-,0.00,Snow,Light Snow,0,2012-11-11 03:24:00
8:57 PM,19.9,16.0,85,29.97,10.0,SW,6.9,-,0.00,,Clear,230,2012-11-11 03:57:00
9:57 PM,18.0,15.1,88,30.00,10.0,South,3.5,-,N/A,,Clear,170,2012-11-11 04:57:00
10:57 PM,16.0,12.0,84,30.01,10.0,SW,3.5,-,N/A,,Clear,230,2012-11-11 05:57:00
11:57 PM,18.0,14.0,84,30.01,10.0,West,4.6,-,N/A,,Clear,270,2012-11-11 06:57:00